Hourly Weather Roundup
Issued by NWS Central Illinois

Home | Current Version | Previous Version | Text Only | Print | Product List | Glossary Off
Versions: 1 2 3 4 5 6 7 8 9 10 11 12 13 14 15 16 17 18 19 20 21 22 23 24 25 26 27 28 29 30 31 32 33 34 35 36 37 38 39 40 41 42 43 44 45 46 47 48 49 50

808
NZUS43 KILX 260610
HWRILX

AREA WEATHER ROUNDUP
NATIONAL WEATHER SERVICE, LINCOLN IL
100 AM CDT MON SEP 26 2016


CITY           SKY/WX    TMP DP  RH WIND       PRES   REMARKS
BLOOMINGTON    CLOUDY    65  53  65 NW15G24   30.05R
6HR MIN TEMP:  65; 6HR MAX TEMP:  80;

CHAMPAIGN      CLOUDY    66  54  65 NW14      30.02S
6HR MIN TEMP:  66; 6HR MAX TEMP:  78; 6HR PCP:  0.05;

DANVILLE       LGT RAIN  64  58  81 NW8       29.97S
6HR MIN TEMP:  64; 6HR MAX TEMP:  73;

DECATUR        CLOUDY    68  53  58 NW15G23   30.05R
6HR MIN TEMP:  68; 6HR MAX TEMP:  83;

EFFINGHAM      MOCLDY    71  63  78 W13G22    30.06R
FLORA          MOCLDY    74  69  84 W13G20    30.02R
6HR MIN TEMP:  73; 6HR MAX TEMP:  82;

GALESBURG      CLOUDY    61  51  69 W10G16    30.08S
JACKSONVILLE   RAIN      59  56  87 W7G16     30.11R
6HR MIN TEMP:  59; 6HR MAX TEMP:  78; 6HR PCP:  0.04;

LACON          DRIZZLE   62  50  64 W7G16     30.04R
6HR MIN TEMP:  62; 6HR MAX TEMP:  78;

LAWRENCEVILLE  MOCLDY    74  68  81 W6        29.98S
6HR MIN TEMP:  73; 6HR MAX TEMP:  80;

LITCHFIELD     CLOUDY    63  54  73 NW12      30.09S
$$


CITY           SKY/WX    TMP DP  RH WIND       PRES   REMARKS
LINCOLN        NOT AVBL
MACOMB         CLOUDY    62  51  66 NW9       30.12S
MATTOON        LGT RAIN  68  56  65 NW16      30.02R
6HR MIN TEMP:  68; 6HR MAX TEMP:  78; 6HR PCP: TRACE;

MT CARMEL AP   LGT RAIN  72  69  88 W5        29.98S
6HR MIN TEMP:  71; 6HR MAX TEMP:  80; 6HR PCP:  0.01;

OLNEY-NOBLE AP CLEAR     72  72 100 W3        29.99F
PARIS          CLOUDY    68  64  85 NW3       30.01R
6HR MIN TEMP:  68; 6HR MAX TEMP:  75;

PEORIA         LGT RAIN  63  53  70 NW7       30.07R
6HR MIN TEMP:  63; 6HR MAX TEMP:  78; 6HR PCP: TRACE;

PONTIAC        CLOUDY    66  54  64 W16       30.03R
RANTOUL        CLOUDY    67  57  69 NW10G20   30.01S
6HR MIN TEMP:  67; 6HR MAX TEMP:  78;

ROBINSON       MOCLDY    71  69  94 W3        29.99S
6HR MIN TEMP:  69; 6HR MAX TEMP:  77;

SPRINGFIELD    CLOUDY    67  51  56 NW13G24   30.08R
6HR MIN TEMP:  67; 6HR MAX TEMP:  83;

TAYLORVILLE    CLOUDY    66  53  61 NW9       30.08R
$$

...REGIONAL REPORTS...


CITY           SKY/WX    TMP DP  RH WIND       PRES   REMARKS
CHICAGO O`HARE LGT RAIN  64  54  69 W15G24    29.96R
KANKAKEE       CLOUDY    66  54  65 W7        29.99S
MOLINE         CLOUDY    62  51  67 W13       30.06S
MOUNT STERLING MOCLDY    60  56  88 W3        30.11S
MOUNT VERNON   PTCLDY    73  64  73 NW3       30.02S
PITTSFIELD     LGT RAIN  60  58  91 W3        30.13S
QUINCY         CLOUDY    61  53  75 W6        30.12S
ROCKFORD       CLOUDY    62  52  69 W13       30.01R
$$


CITY           SKY/WX    TMP DP  RH WIND       PRES   REMARKS
BURLINGTON     CLOUDY    60  51  72 NW5       30.10S
CEDAR RAPIDS   MOCLDY    57  52  83 W12       30.07S
DES MOINES     CLEAR     57  45  64 NW10      30.14R
KIRKSVILLE     CLOUDY    58  52  80 W3        30.16S
OTTUMWA        MOCLDY    56  50  80 W7        30.11F
ST LOUIS       RAIN      64  57  78 NW12      30.13R
$$


CITY           SKY/WX    TMP DP  RH WIND       PRES   REMARKS
TERRE HAUTE    MOCLDY    73  68  84 W5        29.97S
EVANSVILLE     CLEAR     73  68  84 CALM      29.98F
INDIANAPOLIS   CLOUDY    72  67  84 CALM      29.96S THUNDER
LAFAYETTE      PTCLDY    69  67  93 NW10      29.96S
MADISON        CLOUDY    60  50  69 W13G18    29.95S
MILWAUKEE      CLOUDY    64  54  69 W13       29.91S
$$






USA.gov is the U.S. government's official web portal to all federal, state and local government web resources and services.